STARLINK-32232 (60431 NORAD) Tracking and Keplerian Element Data

This shows tracking and keplerian element data for the satellite.

Feedback or suggestion? Click here.




ElementValue
Catalog60431
NameSTARLINK-32232
Epoch Orbit1078
Epoch Day286.82007121
Epoch Year2024
RAAN79.5598
Inclination53.1629
Eccentricity0.0001381
Argument of Perigee114.7056
Mean Anonmoly245.4088
Mean Motion15.30197907
Decay Rate8.94E-06
L11 60431U 24144G 24286.82007121 .00000894 00000+0 42301-4 0 9996
L22 60431 53.1629 79.5598 0001381 114.7056 245.4088 15.30197907 10781



Live tracking and technical data element details for STARLINK-32232 (NORAD 60431). STARLINK-32232 can be tracked NOW for your location showing map with azimuth and elevation plus other details from your city location.







IsCatalogInMostPopularTable: catalog: 60431, numindb: 9
Update: records affected: 1



GetName: 60431 STARLINK-32232

Hit Count: updated at: Wed, 04 Dec 2024 18:39:22 GMT